Location: *
(48.8489°N, 2.3218°E)
Time: 20:23:46
(UTC+00:00)

SL-24 R/B - Pass Details

Date: 23 August 2019
Orbit: 625 x 1075 km, 98.0° (Epoch: 22 October)

Event Time Altitude Azimuth Distance (km) Brightness Sun altitude
Exits shadow 19:51:03 - 148° (SSE) 2,193 6.3 -9.7°
Reaches altitude 10° 19:51:12 10° 147° (SSE) 2,132 6.3 -9.8°
Maximum altitude 19:55:39 53° 71° (ENE) 803 4.4 -10.4°
Drops below altitude 10° 19:59:54 10° 355° (N) 2,023 7.2 -11.0°
Sets 20:02:05 0° 351° (N) 2,925 8.2 -11.3°
